FW0954 Weather Reports


time (UTC)temp
C
wind
direction
speed
KPH
gust
KPH
rain 1hr
cm
rain 24hr
cm
rain mn
cm
humidity
%
barometer
mb
20260502205502 26 117 0.0 4.8 0.00 0.00 0.00 41 1020.0
20260502205003 26 114 0.0 4.8 0.00 0.00 0.00 41 1020.0
20260502204502 26 92 0.0 1.6 0.00 0.00 0.00 41 1020.0
20260502204002 26 151 0.0 3.2 0.00 0.00 0.00 41 1020.0
20260502203502 26 153 0.0 3.2 0.00 0.00 0.00 41 1020.1
20260502203002 26 158 0.0 6.4 0.00 0.00 0.00 41 1020.2
20260502202502 26 124 0.0 6.4 0.00 0.00 0.00 41 1020.2
20260502201503 25 124 1.6 6.4 0.00 0.00 0.00 43 1020.4
20260502201003 25 126 1.6 6.4 0.00 0.00 0.00 41 1020.4
20260502200502 25 117 0.0 4.8 0.00 0.00 0.00 42 1020.5
20260502200003 25 94 0.0 1.6 0.00 0.00 0.00 42 1020.4
20260502195503 25 113 0.0 3.2 0.00 0.00 0.00 40 1020.5
20260502195002 25 106 0.0 3.2 0.00 0.00 0.00 42 1020.5
20260502194002 25 74 0.0 4.8 0.00 0.00 0.00 42 1020.6
20260502193503 25 82 0.0 4.8 0.00 0.00 0.00 43 1020.7
20260502193003 25 75 0.0 6.4 0.00 0.00 0.00 41 1020.7
20260502192503 25 57 0.0 6.4 0.00 0.00 0.00 42 1020.7
20260502192002 25 115 1.6 6.4 0.00 0.00 0.00 43 1020.8
20260502191502 25 115 1.6 6.4 0.00 0.00 0.00 41 1020.9
20260502191002 25 114 1.6 6.4 0.00 0.00 0.00 41 1020.9
20260502190002 25 114 1.6 4.8 0.00 0.00 0.00 41 1020.9
20260502185002 25 116 1.6 4.8 0.00 0.00 0.00 42 1021.0
20260502184502 25 122 1.6 4.8 0.00 0.00 0.00 42 1021.1
20260502184003 25 117 0.0 4.8 0.00 0.00 0.00 44 1021.2
20260502183502 25 118 0.0 6.4 0.00 0.00 0.00 42 1021.3
20260502182503 25 117 1.6 4.8 0.00 0.00 0.00 43 1021.3
20260502182003 25 123 1.6 4.8 0.00 0.00 0.00 42 1021.3
20260502181503 25 117 0.0 3.2 0.00 0.00 0.00 43 1021.4
20260502181003 25 108 0.0 3.2 0.00 0.00 0.00 41 1021.5
20260502170502 23 79 0.0 4.8 0.00 0.00 0.00 45 1022.1
20260502164003 22 128 1.6 6.4 0.00 0.00 0.00 49 1022.2
20260502163502 22 194 0.0 6.4 0.00 0.00 0.00 51 1022.1
20260502163003 23 268 0.0 4.8 0.00 0.00 0.00 47 1022.1
20260502162003 22 287 0.0 3.2 0.00 0.00 0.00 51 1022.2
20260502161503 22 338 0.0 1.6 0.00 0.00 0.00 52 1022.2
20260502161003 22 297 0.0 4.8 0.00 0.00 0.00 51 1022.2
20260502160502 22 325 1.6 4.8 0.00 0.00 0.00 51 1022.1
20260502152002 20 179 0.0 1.6 0.00 0.00 0.00 58 1022.0
20260502151503 20 280 0.0 1.6 0.00 0.00 0.00 59 1022.1
20260502151002 19 296 0.0 1.6 0.00 0.00 0.00 58 1022.0
20260502150502 19 293 0.0 1.6 0.00 0.00 0.00 60 1021.9
20260502130503 11 274 0.0 3.2 0.00 0.00 0.00 93 1021.3
20260502123502 10 288 0.0 1.6 0.00 0.00 0.00 95 1020.6
20260502123003 10 0 0.0 0.0 0.00 0.00 0.00 94 1020.5
20260502122503 10 0 0.0 0.0 0.00 0.00 0.00 94 1020.4
20260502122003 9 0 0.0 0.0 0.00 0.00 0.00 93 1020.4
20260502121002 9 0 0.0 0.0 0.00 0.00 0.00 92 1020.2
20260502120503 9 0 0.0 0.0 0.00 0.00 0.00 92 1020.1
20260502115503 10 0 0.0 0.0 0.00 0.00 0.00 92 1020.1
20260502115003 10 0 0.0 0.0 0.00 0.00 0.00 92 1019.9
20260502113503 10 0 0.0 0.0 0.00 0.00 0.00 92 1019.7
20260502113002 10 0 0.0 0.0 0.00 0.00 0.00 92 1019.6
20260502112503 10 0 0.0 0.0 0.00 0.00 0.00 91 1019.5
20260502112003 10 0 0.0 0.0 0.00 0.00 0.00 91 1019.4
20260502111503 10 0 0.0 0.0 0.00 0.00 0.00 91 1019.3
20260502111002 10 0 0.0 0.0 0.00 0.00 0.00 91 1019.2
20260502110502 10 288 0.0 1.6 0.00 0.00 0.00 91 1019.1
20260502110003 10 288 0.0 1.6 0.00 0.00 0.00 91 1019.4
20260502105503 10 286 0.0 4.8 0.00 0.00 0.00 91 1019.4
20260502104503 10 288 0.0 3.2 0.00 0.00 0.00 92 1019.2
20260502103503 10 295 0.0 1.6 0.00 0.00 0.00 92 1019.1
20260502103003 10 292 0.0 3.2 0.00 0.00 0.00 93 1019.1
20260502102503 10 290 0.0 3.2 0.00 0.00 0.00 93 1019.1
20260502102003 10 0 0.0 0.0 0.00 0.00 0.00 93 1019.0
20260502101503 10 0 0.0 0.0 0.00 0.00 0.00 92 1019.0
20260502101004 10 0 0.0 0.0 0.00 0.00 0.00 92 1018.9
20260502100502 10 0 0.0 0.0 0.00 0.00 0.00 92 1018.9
20260502091504 10 310 0.0 1.6 0.00 0.00 0.00 90 1019.0
20260502091003 10 310 0.0 1.6 0.00 0.00 0.00 90 1018.9
20260502090502 11 0 0.0 0.0 0.00 0.00 0.00 90 1018.8
20260502071503 11 0 0.0 0.0 0.00 0.00 0.00 91 1018.9
20260502071004 11 321 0.0 1.6 0.00 0.00 0.00 91 1019.0
20260502070504 11 321 0.0 1.6 0.00 0.00 0.00 92 1019.0
20260502070003 11 0 0.0 0.0 0.00 0.00 0.00 91 1019.2
20260502065003 11 0 0.0 0.0 0.00 0.00 0.00 91 1019.3
20260502064503 11 0 0.0 0.0 0.00 0.00 0.00 90 1019.2
20260502064003 11 0 0.0 0.0 0.00 0.00 0.00 90 1019.2
20260502063503 11 0 0.0 0.0 0.00 0.00 0.00 91 1019.3
20260502063003 11 86 0.0 1.6 0.00 0.00 0.00 91 1019.3
20260502062503 11 86 0.0 1.6 0.00 0.00 0.00 92 1019.2
20260502062003 11 0 0.0 0.0 0.00 0.00 0.00 92 1019.3
20260502061003 11 0 0.0 0.0 0.00 0.00 0.00 91 1019.2
20260502060503 11 0 0.0 0.0 0.00 0.00 0.00 91 1019.1
20260502060004 11 0 0.0 0.0 0.00 0.00 0.00 90 1019.0
20260502055003 11 0 0.0 0.0 0.00 0.00 0.00 91 1019.1
20260502054503 11 0 0.0 0.0 0.00 0.00 0.00 91 1019.1
20260502054003 11 0 0.0 0.0 0.00 0.00 0.00 90 1019.2
20260502053504 11 0 0.0 0.0 0.00 0.00 0.00 90 1019.2
20260502053004 11 0 0.0 0.0 0.00 0.00 0.00 89 1019.2
20260502052003 11 0 0.0 0.0 0.00 0.00 0.00 89 1019.3
20260502051503 11 0 0.0 0.0 0.00 0.00 0.00 89 1019.3
20260502051004 11 0 0.0 0.0 0.00 0.00 0.00 89 1019.2
20260502050504 11 0 0.0 0.0 0.00 0.00 0.00 89 1019.3
20260502045502 11 0 0.0 0.0 0.00 0.00 0.00 88 1019.1
20260502045002 11 0 0.0 0.0 0.00 0.00 0.00 87 1019.0
20260502044502 12 0 0.0 0.0 0.00 0.00 0.00 87 1018.9
20260502044001 12 0 0.0 0.0 0.00 0.00 0.00 87 1019.1
20260502043501 12 0 0.0 0.0 0.00 0.00 0.00 87 1019.0
20260502043002 12 0 0.0 0.0 0.00 0.00 0.00 87 1019.0
20260502042502 12 0 0.0 0.0 0.00 0.00 0.00 87 1018.9
20260502042002 12 0 0.0 0.0 0.00 0.00 0.00 86 1019.0
20260502041501 12 0 0.0 0.0 0.00 0.00 0.00 86 1018.8
20260502041002 12 0 0.0 0.0 0.00 0.00 0.00 86 1018.8
20260502040502 12 0 0.0 0.0 0.00 0.00 0.00 85 1018.9
20260502040002 12 0 0.0 0.0 0.00 0.00 0.00 83 1019.0
20260502035002 13 0 0.0 0.0 0.00 0.00 0.00 84 1019.2
20260502034501 13 0 0.0 0.0 0.00 0.00 0.00 83 1019.1
20260502034001 13 0 0.0 0.0 0.00 0.00 0.00 83 1019.1
20260502033502 13 0 0.0 0.0 0.00 0.00 0.00 82 1019.0
20260502032502 13 0 0.0 0.0 0.00 0.00 0.00 82 1018.7
20260502032001 13 0 0.0 0.0 0.00 0.00 0.00 83 1018.6
20260502031502 13 0 0.0 0.0 0.00 0.00 0.00 83 1018.6
20260502031002 13 0 0.0 0.0 0.00 0.00 0.00 83 1018.7
20260502030502 14 0 0.0 0.0 0.00 0.00 0.00 83 1018.7
20260502030002 14 0 0.0 0.0 0.00 0.00 0.00 83 1018.6
20260502025501 14 0 0.0 0.0 0.00 0.00 0.00 83 1018.6
20260502025001 14 0 0.0 0.0 0.00 0.00 0.00 83 1018.5
20260502024502 14 0 0.0 0.0 0.00 0.00 0.00 83 1018.4
20260502024001 14 0 0.0 0.0 0.00 0.00 0.00 83 1018.4
20260502023501 14 0 0.0 0.0 0.00 0.00 0.00 83 1018.4
20260502023001 14 0 0.0 0.0 0.00 0.00 0.00 84 1018.4
20260502022501 14 0 0.0 0.0 0.00 0.00 0.00 83 1018.4
20260502022002 14 0 0.0 0.0 0.00 0.00 0.00 82 1018.3
20260502021502 14 0 0.0 0.0 0.00 0.00 0.00 83 1018.2
20260502021002 14 0 0.0 0.0 0.00 0.00 0.00 82 1018.0
20260502020501 14 0 0.0 0.0 0.00 0.00 0.00 82 1018.0
20260502020001 14 0 0.0 0.0 0.00 0.00 0.00 82 1017.9
20260502015501 14 0 0.0 0.0 0.00 0.00 0.00 82 1017.7
20260502015002 14 86 0.0 1.6 0.00 0.00 0.00 82 1017.6
20260502013502 14 86 0.0 1.6 0.00 0.00 0.00 82 1017.3
20260502013002 14 86 0.0 1.6 0.00 0.00 0.00 82 1017.1
20260502012502 14 86 0.0 1.6 0.00 0.00 0.00 81 1017.0
20260502011502 14 86 0.0 1.6 0.00 0.00 0.00 81 1017.0
20260502011001 15 86 0.0 1.6 0.00 0.00 0.00 81 1016.8
20260502010501 15 86 0.0 1.6 0.00 0.00 0.00 81 1016.8
20260502010002 15 0 0.0 0.0 0.00 0.00 0.00 81 1016.9
20260502005502 15 0 0.0 0.0 0.00 0.00 0.00 80 1016.7
20260502005002 15 0 0.0 0.0 0.00 0.00 0.00 80 1016.6
20260502004501 15 0 0.0 0.0 0.00 0.00 0.00 80 1016.6
20260502004002 15 0 0.0 0.0 0.00 0.00 0.00 80 1016.5
20260502003502 15 0 0.0 0.0 0.00 0.00 0.00 80 1016.5
20260502003002 15 0 0.0 0.0 0.00 0.00 0.00 78 1016.5
20260502002501 15 0 0.0 0.0 0.00 0.00 0.00 78 1016.6
20260502002002 15 86 0.0 1.6 0.00 0.00 0.00 78 1016.6
20260502001502 15 86 0.0 1.6 0.00 0.00 0.00 79 1016.4
20260502001002 15 86 0.0 1.6 0.00 0.00 0.00 79 1016.3
20260502000502 15 86 0.0 1.6 0.00 0.00 0.00 80 1016.1
20260502000002 15 0 0.0 0.0 0.00 0.00 0.00 81 1016.0
20260501235502 15 0 0.0 0.0 0.00 0.00 0.00 81 1015.8
20260501235001 15 0 0.0 0.0 0.00 0.00 0.00 81 1015.8
20260501234501 15 0 0.0 0.0 0.00 0.00 0.00 80 1015.9
20260501234001 15 86 0.0 1.6 0.00 0.00 0.00 80 1015.9
20260501233501 15 86 0.0 1.6 0.00 0.00 0.00 80 1015.7
20260501233002 15 86 0.0 1.6 0.00 0.00 0.00 80 1015.9
20260501232502 15 86 0.0 1.6 0.00 0.00 0.00 79 1015.8
20260501231502 16 86 0.0 1.6 0.00 0.00 0.00 79 1015.5
20260501230501 16 86 0.0 1.6 0.00 0.00 0.00 79 1015.5
20260501230002 16 0 0.0 0.0 0.00 0.00 0.00 79 1015.4
20260501225502 16 0 0.0 0.0 0.00 0.00 0.00 79 1015.5
20260501224503 16 84 0.0 1.6 0.00 0.00 0.00 76 1015.5
20260501224002 16 84 0.0 1.6 0.00 0.00 0.00 75 1015.5
20260501223502 16 84 0.0 1.6 0.00 0.00 0.00 74 1015.4
20260501223002 16 95 0.0 3.2 0.00 0.00 0.00 73 1015.3
20260501222501 16 91 0.0 3.2 0.00 0.00 0.00 71 1015.3
20260501221501 16 85 0.0 4.8 0.00 0.00 0.00 69 1015.4
20260501221001 16 52 0.0 4.8 0.00 0.00 0.00 71 1015.2
20260501220501 16 79 1.6 6.4 0.00 0.00 0.00 71 1015.3
20260501220002 16 77 1.6 6.4 0.00 0.00 0.00 69 1015.3
20260501215502 16 85 0.0 6.4 0.00 0.00 0.00 69 1015.3
20260501215002 16 103 0.0 3.2 0.00 0.00 0.00 69 1015.3
20260501214502 16 103 0.0 3.2 0.00 0.00 0.00 69 1015.4
20260501214002 16 103 0.0 3.2 0.00 0.00 0.00 70 1015.5
20260501213002 16 95 0.0 4.8 0.00 0.00 0.00 68 1015.4
20260501212502 16 79 0.0 6.4 0.00 0.00 0.00 67 1015.3
20260501212002 16 79 1.6 9.7 0.00 0.00 0.00 66 1015.2
20260501210502 16 97 0.0 3.2 0.00 0.00 0.00 68 1015.2
20260501210002 16 102 0.0 3.2 0.00 0.00 0.00 69 1015.3